{"data":{"norad_id":64733,"epoch":"2026-05-24T19:43:32.653344Z","epoch_age_seconds":86360,"freshness":"FRESH","line1":"1 64733U 25144K   26144.82190571  .00014546  00000+0  44082-3 0  9999","line2":"2 64733  53.1588 184.1813 0001186  86.6337 273.4801 15.34397776 51418","mean_motion":15.34397776,"eccentricity":0.0001186,"inclination_deg":53.1588,"raan_deg":184.1813,"arg_perigee_deg":86.6337,"mean_anomaly_deg":273.4801,"bstar":0.00044082,"rev_number":5141,"period_min":93.847894106958,"perigee_km":461.89852597532,"apogee_km":463.52117484824,"semimajor_km":6840.8468504118,"source":"CELESTRAK","updated_at":"2026-05-25T13:38:20.545581Z"}}